STARLINK-11433, 62008

Orbit data source: Space-Track

STARLINK-11433, 62008 is a payload satellite owned by SpaceX/Seattle (US) in LEO that was launched on Mon, 18 Nov 2024 UTC via an FALCON 9 launch vehicle from the Air Force Western Test Range (AFWTR). Payloads include a variety of satellites, spacecraft, and rockets equipped with specific instruments for various scientific and technological missions. These include communications satellites like Starlink; space stations such as the ISS; scientific satellites like the Hubble; Earth observation satellites from companies like Planet Labs, Umbra, and HawkEye 360; GPS; miniature CubeSats for education and research; and military/defense satellites.

Not visible in the next 10 days
STARLINK-11433 details
Identifier
62008, 2024-213A
Orbit
LEO
Last TLE update1 day ago
Origin
Flag of USSpaceX/Seattle (US)
ManufacturerSpaceX/Seattle
MissionOperational spacecraft
Bus & MotorSTARLINK V2M, Unknown motor
Mass730 kg wet, ~700 kg dry
Launch date (UTC)
2024-11-18 (1 month ago)
Launch vehicle
FALCON 9
Launch site
Air Force Western Test Range (AFWTR)
Object type
Payload
Rocket body
Debris
Shape & HBRUnknown
Radar Cross SectionLarge (>1 m²)

Expand to show TLE details & history

TLE from 1 day ago
0 STARLINK-11433
1 62008U 24213A   24360.43273229 -.00004409  00000-0 -22966-4 0  9993
2 62008  53.1571  48.9467 0001266  92.2842 267.8323 15.76715566  5892
Epoch: 2024-12-25T10:23Z
Definitive object data (Epoch: 2024-12-25T10:23:08.069Z)
Latitude-0.00011°
Longitude158.73644°
Altitude340.704 km
Speed7.706 km/s
True Right ascension03h 15m 47s
True Declination0° 00' 00"
Sunlit
Object was in full shadow at TLE epoch
Visualization TLE readout
Latitude-50.11305°
Longitude36.83847°
Altitude357.836 km
Speed7.694 km/s
Apparent Right ascension20h 27m 39s
Apparent Declination-46° 30' 37"
Sunlit
Object is in daylight
Visualization observer readout
Local Sidereal Time09:37:33
Azimuth123.199° SE
Elevation-75.704°
Doppler factor1
Orbital elements
Apogee altitude340.866 km
Perigee altitude339.165 km
Semi-major axis6,718.153 km
Eccentricity0.0001266
Inclination53.1571°
RAAN48.9467°
Arg. of periapsis92.2842°
True anomaly267.8178°
Mean anomaly267.8323°
Eccentric anomaly267.82505°
Mean motion3.94156 °/min
BSTAR-0.000022966
Orbital period91.33 mins
Loading maneuver chart data...
Loading historical data...
Loading historical data...
Loading historical data...
Loading historical data...
Loading historical data...
Loading historical data...
Loading historical data...

STARLINK-11433 Visibility forecast

Observer location: undefined°, undefined

STARLINK-11433 is not visible in the next 10 days
Span
Click to sort rows by Start time (UTC) header in descending order
Start Az.
Max El. time (UTC)
Max El. Az.
Max El.
End time (UTC)
End Az.
|